Simultaneous Nadir Overpasses (SNOs) Predictions

Prediction of SNOs between FY3D and AQUA Satellite Orbit:

Table of predicted SNOs for the next 14.0 days since TLE Epoch: 1/14/2023
Index Date (FY3D) Time (FY3D) Lat,Lon (FY3D) SZA (FY3D ) Date (AQUA) Time (AQUA) Lat,Lon (AQUA) SZA (AQUA ) Distance(km) Time Diff (sec)
1 01/15/2023 05:29:27 77.78, 81.66 99.46 01/15/2023 05:29:43 77.77, 81.67 99.45 0.44 16
2 01/15/2023 06:19:55 -77.04,-107.61 81.47 01/15/2023 06:18:52 -77.04,-107.69 81.44 2.08 63
3 01/17/2023 20:05:55 77.67,-136.93 98.84 01/17/2023 20:06:02 77.67,-136.96 98.84 0.80 7
4 01/17/2023 20:56:29 -77.18, 32.66 81.78 01/17/2023 20:55:16 -77.17, 32.75 81.78 2.44 73
5 01/20/2023 09:52:46 -79.97,-179.58 78.31 01/20/2023 09:54:00 -80.16,-178.97 78.23 23.97 74
6 01/20/2023 10:42:23 77.53, 4.65 98.13 01/20/2023 10:42:20 77.54, 4.54 98.15 2.74 3
7 01/23/2023 00:28:22 -78.08, -24.54 81.74 01/23/2023 00:29:26 -78.08, -24.59 81.75 1.29 64
8 01/23/2023 01:18:57 77.65, 145.00 97.70 01/23/2023 01:18:42 77.65, 145.03 97.70 0.85 15
9 01/25/2023 15:04:54 -78.11, 116.18 82.31 01/25/2023 15:05:45 -78.11, 116.24 82.33 1.38 51



Historial Predications of SNOs between FY3D and AQUA
